| time (UTC) | temp C | wind direction | speed KPH | gust KPH | rain 1hr cm | rain 24hr cm | rain mn cm | humidity % | barometer mb |
| 20260504002017 | 13 | 225 | 3.2 | 8.0 | 0.00 | 0.00 | 0.00 | 44 | 1007.4 |
| 20260504001037 | 13 | 225 | 1.6 | 6.4 | 0.00 | 0.00 | 0.00 | 45 | 1007.2 |
| 20260504000017 | 13 | 203 | 6.4 | 9.7 | 0.00 | 0.00 | 0.00 | 45 | 1007.3 |
| 20260503235017 | 13 | 225 | 6.4 | 16.1 | 0.00 | 0.00 | 0.00 | 45 | 1007.2 |
| 20260503234017 | 13 | 315 | 6.4 | 17.7 | 0.00 | 0.00 | 0.00 | 46 | 1007.6 |
| 20260503233017 | 13 | 293 | 16.1 | 27.4 | 0.00 | 0.00 | 0.00 | 44 | 1007.8 |
| 20260503232017 | 13 | 270 | 12.9 | 30.6 | 0.00 | 0.00 | 0.00 | 44 | 1008.0 |
| 20260503231017 | 13 | 293 | 11.3 | 19.3 | 0.00 | 0.00 | 0.00 | 40 | 1007.9 |
| 20260503230019 | 13 | 293 | 11.3 | 24.1 | 0.00 | 0.00 | 0.00 | 41 | 1007.8 |
| 20260503225059 | 14 | 293 | 6.4 | 14.5 | 0.00 | 0.00 | 0.00 | 39 | 1007.7 |
| 20260503224039 | 13 | 270 | 4.8 | 9.7 | 0.00 | 0.00 | 0.00 | 41 | 1007.5 |
| 20260503223020 | 14 | 248 | 4.8 | 11.3 | 0.00 | 0.00 | 0.00 | 39 | 1007.5 |
| 20260503222019 | 14 | 270 | 4.8 | 9.7 | 0.00 | 0.00 | 0.00 | 40 | 1007.4 |
| 20260503221019 | 14 | 248 | 8.0 | 16.1 | 0.00 | 0.00 | 0.00 | 38 | 1007.5 |
| 20260503220019 | 13 | 315 | 4.8 | 14.5 | 0.00 | 0.00 | 0.00 | 39 | 1007.7 |
| 20260503215039 | 13 | 248 | 6.4 | 14.5 | 0.00 | 0.00 | 0.00 | 39 | 1007.8 |
| 20260503214019 | 13 | 270 | 6.4 | 14.5 | 0.00 | 0.00 | 0.00 | 39 | 1007.7 |
| 20260503213018 | 13 | 270 | 9.7 | 16.1 | 0.00 | 0.00 | 0.00 | 40 | 1007.8 |
| 20260503212018 | 13 | 270 | 9.7 | 17.7 | 0.00 | 0.00 | 0.00 | 39 | 1007.7 |
| 20260503211018 | 13 | 293 | 8.0 | 19.3 | 0.00 | 0.00 | 0.00 | 41 | 1007.7 |
| 20260503210018 | 13 | 248 | 6.4 | 14.5 | 0.00 | 0.00 | 0.00 | 41 | 1007.8 |
| 20260503205018 | 13 | 293 | 8.0 | 14.5 | 0.00 | 0.00 | 0.00 | 41 | 1007.9 |
| 20260503204018 | 13 | 293 | 9.7 | 17.7 | 0.00 | 0.00 | 0.00 | 42 | 1007.9 |
| 20260503203018 | 13 | 293 | 12.9 | 22.5 | 0.00 | 0.00 | 0.00 | 41 | 1008.0 |
| 20260503202038 | 13 | 293 | 11.3 | 25.7 | 0.00 | 0.00 | 0.00 | 40 | 1008.2 |
| 20260503201018 | 13 | 270 | 11.3 | 22.5 | 0.00 | 0.00 | 0.00 | 41 | 1008.4 |
| 20260503200018 | 13 | 270 | 11.3 | 22.5 | 0.00 | 0.00 | 0.00 | 41 | 1008.4 |
| 20260503195038 | 13 | 315 | 11.3 | 20.9 | 0.00 | 0.00 | 0.00 | 41 | 1008.4 |
| 20260503194018 | 13 | 248 | 12.9 | 24.1 | 0.00 | 0.00 | 0.00 | 41 | 1008.5 |
| 20260503193018 | 12 | 293 | 11.3 | 20.9 | 0.00 | 0.00 | 0.00 | 39 | 1008.5 |
| 20260503192038 | 13 | 293 | 9.7 | 19.3 | 0.00 | 0.00 | 0.00 | 39 | 1008.6 |
| 20260503191018 | 13 | 293 | 9.7 | 22.5 | 0.00 | 0.00 | 0.00 | 38 | 1008.8 |
| 20260503190018 | 13 | 248 | 11.3 | 22.5 | 0.00 | 0.00 | 0.00 | 37 | 1008.9 |
| 20260503185018 | 13 | 293 | 12.9 | 24.1 | 0.00 | 0.00 | 0.00 | 35 | 1008.9 |
| 20260503184018 | 13 | 293 | 9.7 | 20.9 | 0.00 | 0.00 | 0.00 | 36 | 1008.9 |
| 20260503183018 | 13 | 270 | 11.3 | 24.1 | 0.00 | 0.00 | 0.00 | 34 | 1009.1 |
| 20260503182018 | 13 | 270 | 9.7 | 20.9 | 0.00 | 0.00 | 0.00 | 35 | 1009.2 |
| 20260503181019 | 12 | 293 | 8.0 | 16.1 | 0.00 | 0.00 | 0.00 | 36 | 1009.4 |
| 20260503180018 | 13 | 338 | 8.0 | 19.3 | 0.00 | 0.00 | 0.00 | 34 | 1009.5 |
| 20260503175018 | 12 | 248 | 12.9 | 20.9 | 0.00 | 0.00 | 0.00 | 34 | 1009.7 |
| 20260503174018 | 12 | 225 | 12.9 | 22.5 | 0.00 | 0.00 | 0.00 | 33 | 1009.9 |
| 20260503173038 | 12 | 293 | 4.8 | 9.7 | 0.00 | 0.00 | 0.00 | 34 | 1009.7 |
| 20260503172038 | 12 | 338 | 6.4 | 16.1 | 0.00 | 0.00 | 0.00 | 33 | 1009.9 |
| 20260503171017 | 12 | 315 | 6.4 | 16.1 | 0.00 | 0.00 | 0.00 | 32 | 1010.0 |
| 20260503131039 | 7 | 293 | 6.4 | 16.1 | 0.00 | 0.00 | 0.00 | 61 | 1012.1 |
| 20260503081019 | 5 | 315 | 3.2 | 9.7 | 0.00 | 0.00 | 0.00 | 71 | 1011.4 |
| 20260503072017 | 5 | 248 | 4.8 | 9.7 | 0.00 | 0.00 | 0.00 | 71 | 1011.4 |
| 20260503071038 | 5 | 248 | 4.8 | 9.7 | 0.00 | 0.00 | 0.00 | 71 | 1011.3 |
| 20260503055017 | 3 | 0.0 | 3.2 | 0.00 | 0.00 | 0.00 | 78 | 1011.5 | |
| 20260503054017 | 3 | 0.0 | 1.6 | 0.00 | 0.00 | 0.00 | 78 | 1011.6 | |
| 20260503053017 | 3 | 0.0 | 0.0 | 0.00 | 0.00 | 0.00 | 79 | 1011.6 | |
| 20260503052037 | 3 | 158 | 1.6 | 3.2 | 0.00 | 0.00 | 0.00 | 79 | 1011.7 |
| 20260503051017 | 3 | 158 | 1.6 | 3.2 | 0.00 | 0.00 | 0.00 | 79 | 1011.8 |
| 20260503050057 | 3 | 158 | 1.6 | 4.8 | 0.00 | 0.00 | 0.00 | 79 | 1011.9 |
| 20260503045057 | 3 | 180 | 1.6 | 4.8 | 0.00 | 0.00 | 0.00 | 79 | 1012.0 |
| 20260503044037 | 3 | 158 | 1.6 | 4.8 | 0.00 | 0.00 | 0.00 | 78 | 1012.1 |
| 20260503043017 | 3 | 158 | 1.6 | 3.2 | 0.00 | 0.00 | 0.00 | 78 | 1012.2 |
| 20260503042017 | 3 | 158 | 1.6 | 6.4 | 0.00 | 0.00 | 0.00 | 78 | 1012.3 |
| 20260503041017 | 3 | 180 | 1.6 | 3.2 | 0.00 | 0.00 | 0.00 | 79 | 1012.3 |
| 20260503040019 | 3 | 158 | 3.2 | 6.4 | 0.00 | 0.03 | 0.03 | 79 | 1012.3 |
| 20260503035017 | 3 | 180 | 3.2 | 6.4 | 0.00 | 0.03 | 0.03 | 78 | 1012.3 |
| 20260503034017 | 2 | 180 | 3.2 | 4.8 | 0.00 | 0.03 | 0.03 | 78 | 1012.4 |
| 20260503033018 | 3 | 0.0 | 3.2 | 0.00 | 0.03 | 0.03 | 77 | 1012.3 | |
| 20260503032017 | 3 | 0.0 | 0.0 | 0.00 | 0.03 | 0.03 | 77 | 1012.3 | |
| 20260503031017 | 3 | 0.0 | 1.6 | 0.00 | 0.05 | 0.03 | 77 | 1012.3 | |
| 20260503030017 | 2 | 0.0 | 0.0 | 0.00 | 0.05 | 0.03 | 77 | 1012.5 | |
| 20260503025016 | 3 | 0.0 | 0.0 | 0.00 | 0.08 | 0.03 | 76 | 1012.5 | |
| 20260503024019 | 3 | 0.0 | 0.0 | 0.00 | 0.10 | 0.03 | 76 | 1012.5 | |
| 20260503023019 | 3 | 0.0 | 0.0 | 0.00 | 0.10 | 0.03 | 74 | 1012.5 | |
| 20260503022019 | 3 | 0.0 | 0.0 | 0.00 | 0.13 | 0.03 | 73 | 1012.6 | |
| 20260503021018 | 3 | 225 | 1.6 | 3.2 | 0.00 | 0.13 | 0.03 | 72 | 1012.6 |
| 20260503020018 | 5 | 0.0 | 3.2 | 0.00 | 0.15 | 0.03 | 70 | 1012.7 | |
| 20260503015019 | 5 | 315 | 3.2 | 6.4 | 0.00 | 0.18 | 0.03 | 70 | 1012.6 |
| 20260503014018 | 5 | 315 | 3.2 | 6.4 | 0.00 | 0.18 | 0.03 | 69 | 1012.7 |
| 20260503013019 | 5 | 293 | 4.8 | 11.3 | 0.00 | 0.18 | 0.03 | 69 | 1012.7 |
| 20260503012018 | 5 | 315 | 4.8 | 8.0 | 0.00 | 0.20 | 0.03 | 68 | 1012.7 |
| 20260503011019 | 5 | 293 | 3.2 | 4.8 | 0.00 | 0.20 | 0.03 | 67 | 1012.7 |
| 20260503010017 | 6 | 315 | 4.8 | 8.0 | 0.00 | 0.20 | 0.03 | 66 | 1012.6 |
| 20260503005017 | 6 | 293 | 3.2 | 4.8 | 0.00 | 0.23 | 0.03 | 66 | 1012.4 |
| 20260503004037 | 6 | 248 | 1.6 | 4.8 | 0.00 | 0.23 | 0.03 | 64 | 1012.3 |
| 20260503003017 | 6 | 293 | 3.2 | 8.0 | 0.00 | 0.23 | 0.03 | 63 | 1012.3 |